Powrót do katalogu

FENGYUN 1C DEB

LostSSO
NORAD 37419·DEBRIS·🇨🇳 China

Wystrzelony May 10, 1999 z Taiyuan Satellite Launch Center

Loading…

Następne Przeloty (najbliższe 24 godziny)

TLE

NieaktualneSource: Space-Track

Epoka: Jul 8, 2026, 08:15 UTC

1 37419U 99025EGM 26189.34379721  .00002381  00000-0  90817-3 0  9993
2 37419  98.5667 219.9813 0368011 320.2645  37.2083 14.00445751332542

Śledź FENGYUN 1C DEB w czasie rzeczywistym z AllMySat

Download on the App Store